User: anonymous   Login
Location: Unspecified
(0.0000°N, 0.0000°E)
Time: 00:59:00
(UTC+00:00)
Language:

OPTUS D1 - Orbit

View from above orbital plane
View from above orbital plane
View from above satellite
View from above satellite

Ground track
Ground track

The orbit data is extracted from the following two-line orbital elements,

1 29495U 06043B   16124.51736027 -.00000123  00000-0  00000+0 0  9993
2 29495   0.0508  72.1772 0003135 332.2673 163.6422  1.00271046 35078
Epoch (UTC): 03 May 2016 12:24:59
Eccentricity: 0.0003135
inclination: 0.0508°
perigee height: 35773 km
apogee height: 35799 km
right ascension of ascending node: 72.1772°
argument of perigee: 332.2673°
revolutions per day: 1.00271046
mean anomaly at epoch: 163.6422°
orbit number at epoch: 3507

The dashed part of the orbit path shows where the satellite is in the earth's shadow,  

DLR